TINTIN A (43216 NORAD) Tracking and Keplerian Element Data

This shows tracking and keplerian element data for the satellite.

Feedback or suggestion? Click here.




ElementValue
Catalog43216
NameTINTIN A
Epoch Orbit8702
Epoch Day261.58344917
Epoch Year2019
RAAN268.4199
Inclination97.4527
Eccentricity0.0014834
Argument of Perigee77.2943
Mean Anonmoly282.9949
Mean Motion15.20475027
Decay Rate1.011E-05
L11 43216U 18020B 19261.58344917 .00001011 00000-0 49379-4 0 9996
L22 43216 97.4527 268.4199 0014834 77.2943 282.9949 15.20475027 87026

Live tracking and technical data element details for TINTIN A (NORAD 43216). TINTIN A can be tracked NOW for your location showing map with azimuth and elevation plus other details from your city location.

Track the satellite on the map from your city or location and see movement details for azimuth, elevation, latitude, longitude, range, height, and movement on the map or in text.







IsCatalogInMostPopularTable: catalog: 43216, numindb: 393
Update: records affected: 1



GetName: 43216 TINTIN A

Hit Count: updated at: Thu, 19 Sep 2019 17:28:45 GMT